Terminal Aerodrome Forecast
Issued by NWS

Home | Current Version | Previous Version | Graphics & Text | Print | Product List | Glossary On
Versions: 1 2 3 4 5 6 7 8 9 10 11 12 13
000
FTUS42 KMHX 201700
TAFOAJ
TAF
KOAJ 201725Z 2018/2118 01015G23KT P6SM -SHRA OVC015
      TEMPO 2018/2021 3SM -RA OVC009
     FM210600 36012G22KT P6SM OVC008
     FM211500 36015G25KT P6SM OVC015
      AMD LTD TO CLD VIS AND WIND=

USA.gov is the U.S. government's official web portal to all federal, state and local government web resources and services.